User: anonymous   Login
Location: *
(50.2903°S, 172.5375°W)
Time: 15:30:57
(UTC+00:00)
Language:

Cosmos 292 Rocket - Orbit

View from above orbital plane
View from above orbital plane
View from above satellite
View from above satellite

Ground track
Ground track

The orbit data is extracted from the following two-line orbital elements,

1  4071U 69070B   20021.08989205  .00000041  00000-0  14119-4 0  9995
2  4071  74.0490 105.8712 0014966 207.6421 152.3953 14.62818747676454
Epoch (UTC): 21 January 2020 02:09:26
Eccentricity: 0.0014966
inclination: 74.0490°
perigee height: 673 km
apogee height: 694 km
right ascension of ascending node: 105.8712°
argument of perigee: 207.6421°
revolutions per day: 14.62818747
mean anomaly at epoch: 152.3953°
orbit number at epoch: 67645

The dashed part of the orbit path shows where the satellite is in the earth's shadow,  

DLR